This is the latest recevied weather packets stored in our database for station/object K0CVS. If no packets are shown the sender has not sent any weather packets the latest 1 day(s).
| Time | Temp. | Humidity | Pressure | Rain* | Wind** | Luminosity | Snow |
|---|---|---|---|---|---|---|---|
| 1778022157 | 10.56° C | 83% | 1012.1 hPa | 0 mm | 0 m/s | 43 W/m² | - |
| 1778021853 | 10.56° C | 83% | 1012.2 hPa | 0 mm | 0 m/s | 42 W/m² | - |
| 1778021551 | 10.56° C | 84% | 1012 hPa | 0 mm | 0 m/s | 40 W/m² | - |
| 1778021246 | 10.56° C | 84% | 1011.9 hPa | 0 mm | 0 m/s | 52 W/m² | - |
| 1778020944 | 10.56° C | 84% | 1011.7 hPa | 0 mm | 0 m/s | 62 W/m² | - |
| 1778020641 | 10.56° C | 83% | 1011.8 hPa | 0 mm | 0 m/s | 48 W/m² | - |
| 1778020337 | 10.56° C | 83% | 1011.8 hPa | 0 mm | 0 m/s | 54 W/m² | - |
| 1778020033 | 10.56° C | 82% | 1012 hPa | 0 mm | 0 m/s | 61 W/m² | - |
| 1778019729 | 10.56° C | 83% | 1012 hPa | 0 mm | 0 m/s | 52 W/m² | - |
| 1778019427 | 10.56° C | 83% | 1011.9 hPa | 0 mm | 0 m/s | 54 W/m² | - |
| 1778019123 | 10.56° C | 82% | 1011.8 hPa | 0 mm | 0 m/s | 53 W/m² | - |
| 1778018820 | 10.56° C | 83% | 1011.9 hPa | 0 mm | 0 m/s | 64 W/m² | - |
| 1778018518 | 10.56° C | 82% | 1012 hPa | 0 mm | 0 m/s | 73 W/m² | - |
| 1778018215 | 10.56° C | 82% | 1012.1 hPa | 0 mm | 0 m/s | 96 W/m² | - |
| 1778017913 | 10.56° C | 82% | 1011.9 hPa | 1.78 mm | 0 m/s | 110 W/m² | - |
| 1778017611 | 10.56° C | 81% | 1011.9 hPa | 1.78 mm | 0 m/s | 97 W/m² | - |
| 1778017308 | 10.56° C | 80% | 1012.1 hPa | 0 mm | 0.45 m/s, 188° | 62 W/m² | - |
| 1778017006 | 10.56° C | 80% | 1012.1 hPa | 0 mm | 0.45 m/s, 190° | 62 W/m² | - |
| 1778016702 | 10.56° C | 81% | 1012.1 hPa | 0 mm | 0 m/s | 90 W/m² | - |
| 1778016398 | 10.56° C | 81% | 1012.1 hPa | 0 mm | 0 m/s | 96 W/m² | - |
| 1778016096 | 10.56° C | 82% | 1012.3 hPa | 0 mm | 0.45 m/s, 194° | 123 W/m² | - |
| 1778015793 | 10.56° C | 83% | 1012.4 hPa | 0 mm | 0 m/s | 105 W/m² | - |
| 1778015490 | 10° C | 83% | 1012.2 hPa | 0 mm | 0 m/s | 126 W/m² | - |
| 1778015186 | 9.44° C | 85% | 1012.4 hPa | 0 mm | 0 m/s | 107 W/m² | - |
| 1778014883 | 9.44° C | 84% | 1012.2 hPa | 0 mm | 0.45 m/s, 243° | 101 W/m² | - |
* Rain latest hour (hover to see other rain measurements)
** Current wind speed in m/s (hover to see current wind gust speed)